Showing default

THAICOM 8, 41552

Orbit data source: Space-Track

THAICOM 8, 41552 is a payload satellite owned by Thaicom (TH) in GEO that was launched on Fri, 27 May 2016 UTC via an FALCON 9 launch vehicle from the Air Force Eastern Test Range (AFETR). Payload-class satellites include a variety of spacecraft equipped with specific instruments for various scientific and technological missions. These include communications satellites like Starlink; space stations such as the ISS; scientific satellites like the Hubble; Earth observation satellites from companies like Planet Labs, Umbra, and HawkEye 360; GPS; miniature CubeSats for education and research; and military/defense satellites.

Not visible in the next 10 days
Identifier
41552, 2016-031A
Orbit
GEO
Country
Flag of THTH / THAI
Related business
Manufacturer
OATK SSG
Mission
Operational Commercial Communications
Bus & Motor
STAR-2.3?, IHI BT-4
Mass
3,100 kg wet, ~2,500 kg dry
Launch date (UTC)
2016-05-27 (10 years ago)
Launch vehicle
FALCON 9
Launch site
Air Force Eastern Test Range (AFETR)
Object type
Payload
Rocket body
Debris
Shape & HBR
Box + 2 Pan, 9.0 m
Radar Cross Section
20.597 m², Large (>1 m²)

Expand to show TLE details & history
Last TLE update: 2 days ago

TLE from 2 days ago
0 THAICOM 8
1 41552U 16031A   26171.40753872 -.00000125  00000-0  00000+0 0  9999
2 41552   0.0601  38.3392 0003702  21.4191  74.0520  1.00271962 36751
Epoch: 2026-06-20T09:46Z
TLE epoch observation values (Epoch: 2026-06-20T09:46:51.345Z)
Latitude
0.07372°
Longitude
78.52693°
Altitude
35,781.686 km
Speed
3.075 km/s
True Right ascension
08h 55m 27s
True Declination
0° 04' 25"
Sunlit
Object was in daylight at epoch
Visualization orbit readout
Latitude
Unknown
Longitude
Unknown
Altitude
Unknown
Speed
Unknown
Apparent Right ascension
Unknown
Apparent Declination
Unknown
Sunlit
N/A
Visualization observer readout
Local Sidereal Time
21:23:24
Azimuth
Unknown
Elevation
Unknown
Doppler factor
Unknown
Orbital elements
Apogee altitude
35,803.225 km
Perigee altitude
35,772.006 km
Semi-major axis
42,165.753 km
Eccentricity
0.00037
Inclination
0.0601°
RAAN
38.3392°
Arg. of periapsis
21.4191°
True anomaly
74.09279°
Mean anomaly
74.052°
Eccentric anomaly
74.0724°
Mean motion
0.25067 °/min
Orbital period
1,436.15 mins
BSTAR
0
Loading maneuver chart data...
Computing Atmospheric mass density...
Loading historical data...
Loading historical data...
Loading historical data...
Loading historical data...
Loading historical data...
Loading historical data...
Loading historical data...
Other satellites on launch #31 in the year 2016 (2016-05-27 UTC)

Documentation

Showing up to 5 results
|